Regional Weather Roundup
Issued by NWS Green Bay, WI

Home | Current Version | Previous Version | Text Only | Print | Product List | Glossary On
Versions: 1 2 3 4 5 6 7 8 9 10 11 12 13 14 15 16 17 18 19 20 21 22 23 24 25 26 27 28 29 30 31 32 33 34 35 36 37 38 39 40 41 42 43 44 45 46 47 48 49 50
000
ASUS43 KGRB 231801
RWRGRB

NORTH-CENTRAL AND NORTHEAST WISCONSIN REGIONAL WEATHER ROUNDUP
NATIONAL WEATHER SERVICE GREEN BAY WI
100 PM CDT WED AUG 23 2017

WIZ005-009-010>012-018-019-231900-
NORTH CENTRAL WISCONSIN

CITY           SKY/WX    TMP DP  RH WIND       PRES   REMARKS
IRONWOOD       CLOUDY    59  46  62 N13G21    30.09S
MANITOWISH WTR NOT AVBL
ARBOR VITAE    NOT AVBL
EAGLE RIVER    NOT AVBL
LAND O LAKES   NOT AVBL
RHINELANDER    CLOUDY    63  49  60 VRB6G18   30.05F
PHILLIPS       MOSUNNY   64  47  54 N13       30.06F
ANTIGO         NOT AVBL
TOMAHAWK       NOT AVBL
MERRILL        NOT AVBL
$$

WIZ013-073-231900-
NORTHEAST WISCONSIN

CITY           SKY/WX    TMP DP  RH WIND       PRES   REMARKS
IRON MOUNTAIN  MOSUNNY   65  44  46 NW14      30.00S
MARINETTE      PTSUNNY   67  49  52 VRB7G17   30.01S
$$

WIZ017-030-035>037-045-231900-
CENTRAL WISCONSIN

CITY           SKY/WX    TMP DP  RH WIND       PRES   REMARKS
MEDFORD        NOT AVBL
WAUSAU         MOSUNNY   68  49  50 W12G18    30.03F
MOSINEE        MOSUNNY   66  50  55 NW13      30.06F
MARSHFIELD     MOSUNNY   69  48  47 NW17      30.06S
WISC RAPIDS    PTSUNNY   69  51  52 N14       30.06F
STEVENS POINT  NOT AVBL
WAUPACA        NOT AVBL
SHAWANO        NOT AVBL
CLINTONVILLE   NOT AVBL
WAUTOMA        MOSUNNY   71  50  47 NW10G20   30.04F
$$

WIZ038-039-048-051-231900-
FOX VALLEY

CITY           SKY/WX    TMP DP  RH WIND       PRES   REMARKS
NWS GREEN BAY  PTSUNNY   71  58  63 NW5       30.01F
APPLETON       PTSUNNY   70  46  43 N14G23    30.01F
OSHKOSH        MOSUNNY   70  52  52 NW10G20   30.02F
FOND DU LAC    PTSUNNY   70  50  49 N8        30.03F
$$

WIZ022-050-052-231900-
EAST CENTRAL WISCONSIN

CITY           SKY/WX    TMP DP  RH WIND       PRES   REMARKS
EPHRAIM        NOT AVBL
WASHINGTON ISL NOT AVBL
STURGEON BAY   PTSUNNY   66  52  60 N13       30.01F
MANITOWOC      NOT AVBL
SHEBOYGAN      MOSUNNY   70  53  54 NW10      30.02F
$$

LMZ563-521-522-541>543-231900-
LAKESHORE

STATION/POSITION TIME  TEMP    WIND        PRES    VSBY  WAVE
                       AIR SEA DIR/SP/G                  HT/PER
                 (UTC) (F)     (DEG/KT/KT) (MB)    (MI)  (FT/S)
SHEBOYGAN LKSHOR 1700   64      20/  9/ 11 1016.4S
KEWAUNEE LKSHORE 1730   67     290/  8/ 12 1015.3F
NORTHPORT PIER   1740   65     320/  9/ 14 1015.6S
N MID LAKE BUOY  1650   61 66  310/ 14/ 17 1015.8R         2/ 4
S GREEN BAY BUOY 1730   65 70  360/  8/ 10 1016.0S
SISTER BAY LKSHO 1718   68     330/ 14/ 17   N/A
MENOMINEE LKSHOR 1730   65     320/ 12/ 19 1015.5F
$$




USA.gov is the U.S. government's official web portal to all federal, state and local government web resources and services.